Location: Blanot
(47.1713°N, 4.2340°E)
Time: 10:51:49
(UTC+00:00)

Cosmos 2221 Rocket - Pass Details

Date: 14 July 2020
Orbit: 619 x 649 km, 82.5° (Epoch: 05 August)

Event Time Altitude Azimuth Distance (km) Brightness Sun altitude
Rises 02:09:55 0° 346° (NNW) 2,912 7.7 -14.2°
Reaches altitude 10° 02:12:12 10° 342° (NNW) 1,999 6.7 -14.0°
Maximum altitude 02:16:29 52° 266° (W) 774 3.8 -13.6°
Enters shadow 02:19:25 19° 196° (SSW) 1,477 4.9 -13.3°
